When you browse on this site, cookies collect data to enhance your experience and personalize the content and advertising you see.
Visit our Privacy Policy to learn more. By continuing to use the site, you agree to this use of cookies and data.
  • în România
  • Lista ţărilor
  • Pe 7 zile
  • Temperatura apei
  • Meteo pe hartă
  • Widget-uri
  • user-avatar
    Intrare

    Meteo pe oră la Świebodzin

    Astăzi, 7 Decembrie, Sâmbătă

    Timp Temperatura Precipitaţii Vânt Presiune Umiditate
    00:00 +2°C° 0.2 mm 7 m/s 747 mmHg 74%
    01:00 +3°C° 0 mm 7 m/s 747 mmHg 83%
    02:00 +3°C° 0.7 mm 7 m/s 746 mmHg 85%
    03:00 +3°C° 0.7 mm 7 m/s 745 mmHg 87%
    04:00 +3°C° 0.7 mm 7 m/s 745 mmHg 88%
    05:00 +4°C° 0.6 mm 7 m/s 745 mmHg 86%
    06:00 +4°C° 0.6 mm 7 m/s 745 mmHg 83%
    07:00 +5°C° 0 mm 6 m/s 745 mmHg 79%
    08:00 +5°C° 0.2 mm 7 m/s 745 mmHg 80%
    09:00 +5°C° 0.2 mm 7 m/s 745 mmHg 81%
    10:00 +6°C° 0.2 mm 7 m/s 745 mmHg 83%
    11:00 +6°C° 0.2 mm 8 m/s 746 mmHg 81%
    12:00 +6°C° 0.2 mm 8 m/s 746 mmHg 79%
    13:00 +7°C° 0.2 mm 8 m/s 747 mmHg 77%
    14:00 +8°C° 0.1 mm 7 m/s 747 mmHg 78%
    15:00 +6°C° 0.1 mm 7 m/s 747 mmHg 79%
    16:00 +6°C° 0.1 mm 7 m/s 748 mmHg 80%
    17:00 +6°C° 0.1 mm 7 m/s 748 mmHg 80%
    18:00 +6°C° 0.1 mm 7 m/s 749 mmHg 80%
    19:00 +6°C° 0.1 mm 7 m/s 749 mmHg 80%
    20:00 +7°C° 0 mm 6 m/s 750 mmHg 82%
    21:00 +7°C° 0 mm 6 m/s 750 mmHg 83%
    22:00 +5°C° 0 mm 6 m/s 750 mmHg 85%
    23:00 +5°C° 0 mm 6 m/s 750 mmHg 84%

    Mâine, 8 Decembrie, Duminică

    Timp Temperatura Precipitaţii Vânt Presiune Umiditate
    00:00 +5°C° 0 mm 6 m/s 750 mmHg 83%
    01:00 +6°C° 0 mm 5 m/s 750 mmHg 82%
    02:00 +6°C° 0 mm 5 m/s 750 mmHg 82%
    03:00 +6°C° 0 mm 5 m/s 749 mmHg 82%
    04:00 +6°C° 0 mm 5 m/s 749 mmHg 82%
    05:00 +5°C° 0 mm 5 m/s 749 mmHg 82%
    06:00 +5°C° 0 mm 5 m/s 749 mmHg 83%
    07:00 +5°C° 0 mm 5 m/s 749 mmHg 83%
    08:00 +5°C° 0 mm 5 m/s 748 mmHg 81%
    09:00 +4°C° 0 mm 6 m/s 748 mmHg 79%
    10:00 +5°C° 0 mm 7 m/s 747 mmHg 76%
    11:00 +5°C° 0 mm 7 m/s 746 mmHg 75%
    12:00 +6°C° 0 mm 7 m/s 745 mmHg 73%
    13:00 +6°C° 0 mm 7 m/s 744 mmHg 71%
    14:00 +8°C° 0.1 mm 7 m/s 744 mmHg 74%
    15:00 +8°C° 0.1 mm 7 m/s 743 mmHg 77%
    16:00 +8°C° 0.1 mm 7 m/s 743 mmHg 80%
    17:00 +8°C° 0.2 mm 7 m/s 743 mmHg 80%
    18:00 +8°C° 0.2 mm 6 m/s 743 mmHg 80%
    19:00 +9°C° 0.2 mm 6 m/s 743 mmHg 80%
    20:00 +8°C° 0.1 mm 6 m/s 742 mmHg 81%
    21:00 +8°C° 0.1 mm 5 m/s 742 mmHg 83%
    22:00 +8°C° 0.1 mm 4 m/s 742 mmHg 84%
    23:00 +7°C° 0 mm 4 m/s 742 mmHg 83%

    Poimâine, 9 Decembrie, Luni

    Timp Temperatura Precipitaţii Vânt Presiune Umiditate
    00:00 +7°C° 0 mm 4 m/s 741 mmHg 82%
    01:00 +6°C° 0 mm 4 m/s 741 mmHg 80%
    02:00 +6°C° 0 mm 4 m/s 741 mmHg 80%
    03:00 +6°C° 0 mm 4 m/s 740 mmHg 79%
    04:00 +6°C° 0 mm 5 m/s 740 mmHg 79%
    05:00 +5°C° 0 mm 5 m/s 740 mmHg 79%
    06:00 +5°C° 0 mm 5 m/s 740 mmHg 78%
    07:00 +5°C° 0 mm 5 m/s 740 mmHg 78%
    08:00 +5°C° 0 mm 5 m/s 740 mmHg 75%
    09:00 +4°C° 0 mm 6 m/s 740 mmHg 73%
    10:00 +5°C° 0 mm 6 m/s 740 mmHg 70%
    11:00 +5°C° 0 mm 7 m/s 740 mmHg 68%
    12:00 +6°C° 0 mm 7 m/s 740 mmHg 65%
    13:00 +6°C° 0 mm 7 m/s 740 mmHg 63%
    14:00 +6°C° 0 mm 7 m/s 740 mmHg 65%
    15:00 +7°C° 0 mm 6 m/s 739 mmHg 67%
    16:00 +5°C° 0 mm 6 m/s 739 mmHg 69%
    17:00 +5°C° 0.1 mm 6 m/s 739 mmHg 70%
    18:00 +5°C° 0.1 mm 6 m/s 740 mmHg 71%
    19:00 +5°C° 0.1 mm 6 m/s 740 mmHg 72%
    20:00 +4°C° 0.1 mm 7 m/s 740 mmHg 73%
    21:00 +4°C° 0.1 mm 7 m/s 740 mmHg 73%
    22:00 +4°C° 0.1 mm 8 m/s 740 mmHg 74%
    23:00 +4°C° 0.2 mm 8 m/s 741 mmHg 76%

    10 Decembrie, Marţi

    Timp Temperatura Precipitaţii Vânt Presiune Umiditate
    00:00 +4°C° 0.2 mm 7 m/s 742 mmHg 78%
    01:00 +5°C° 0.2 mm 7 m/s 743 mmHg 80%
    02:00 +4°C° 0.1 mm 7 m/s 744 mmHg 75%
    03:00 +3°C° 0.1 mm 7 m/s 745 mmHg 70%
    04:00 +2°C° 0.1 mm 7 m/s 746 mmHg 64%
    05:00 +2°C° 0 mm 7 m/s 747 mmHg 71%
    06:00 0°C° 0 mm 7 m/s 748 mmHg 77%
    07:00 +1°C° 0 mm 6 m/s 749 mmHg 84%
    08:00 +1°C° 0.6 mm 6 m/s 751 mmHg 85%
    09:00 +2°C° 0.6 mm 6 m/s 752 mmHg 85%
    10:00 +2°C° 0.6 mm 7 m/s 753 mmHg 86%
    11:00 +2°C° 0.1 mm 6 m/s 754 mmHg 79%
    12:00 +2°C° 0.1 mm 6 m/s 755 mmHg 72%
    13:00 +2°C° 0.1 mm 6 m/s 756 mmHg 66%
    14:00 +1°C° 0 mm 5 m/s 757 mmHg 68%
    15:00 +1°C° 0 mm 4 m/s 757 mmHg 70%
    16:00 +1°C° 0 mm 3 m/s 758 mmHg 72%
    17:00 +2°C° 0 mm 2 m/s 759 mmHg 74%
    18:00 +1°C° 0 mm 2 m/s 759 mmHg 77%
    19:00 +1°C° 0 mm 1 m/s 760 mmHg 80%
    20:00 +1°C° 0 mm 1 m/s 760 mmHg 80%
    21:00 +1°C° 0 mm 1 m/s 760 mmHg 80%
    22:00 +1°C° 0 mm 1 m/s 760 mmHg 80%
    23:00 -1°C° 0 mm 2 m/s 759 mmHg 81%

    11 Decembrie, Miercuri

    Timp Temperatura Precipitaţii Vânt Presiune Umiditate
    00:00 -1°C° 0 mm 2 m/s 759 mmHg 81%
    01:00 -1°C° 0 mm 3 m/s 758 mmHg 81%
    02:00 -1°C° 0 mm 3 m/s 758 mmHg 81%
    03:00 -1°C° 0 mm 3 m/s 757 mmHg 81%
    04:00 -2°C° 0 mm 4 m/s 757 mmHg 81%
    05:00 -2°C° 0 mm 4 m/s 756 mmHg 77%
    06:00 -2°C° 0 mm 4 m/s 756 mmHg 72%
    07:00 -2°C° 0 mm 5 m/s 755 mmHg 68%
    08:00 -1°C° 0 mm 5 m/s 755 mmHg 68%
    09:00 -1°C° 0 mm 5 m/s 755 mmHg 67%
    10:00 -1°C° 0 mm 5 m/s 754 mmHg 67%
    11:00 0°C° 0 mm 4 m/s 754 mmHg 64%
    12:00 0°C° 0 mm 4 m/s 753 mmHg 62%
    13:00 +1°C° 0 mm 4 m/s 753 mmHg 59%
    14:00 +2°C° 0 mm 3 m/s 753 mmHg 62%
    15:00 +1°C° 0 mm 3 m/s 752 mmHg 64%
    16:00 +2°C° 0 mm 2 m/s 752 mmHg 67%
    17:00 +2°C° 0.1 mm 2 m/s 752 mmHg 68%
    18:00 +1°C° 0.1 mm 2 m/s 752 mmHg 70%
    19:00 +1°C° 0.1 mm 2 m/s 751 mmHg 71%
    20:00 +1°C° 0.1 mm 2 m/s 751 mmHg 73%
    21:00 +1°C° 0.1 mm 2 m/s 751 mmHg 75%
    22:00 +1°C° 0.1 mm 2 m/s 751 mmHg 77%
    23:00 0°C° 0 mm 3 m/s 750 mmHg 79%

    12 Decembrie, Joi

    Timp Temperatura Precipitaţii Vânt Presiune Umiditate
    00:00 0°C° 0 mm 3 m/s 750 mmHg 81%
    01:00 0°C° 0 mm 3 m/s 749 mmHg 83%
    02:00 0°C° 0.2 mm 3 m/s 749 mmHg 87%
    03:00 0°C° 0.2 mm 3 m/s 749 mmHg 91%
    04:00 0°C° 0.2 mm 3 m/s 749 mmHg 96%
    05:00 0°C° 0.2 mm 3 m/s 749 mmHg 96%
    06:00 0°C° 0.2 mm 3 m/s 749 mmHg 96%
    07:00 +2°C° 0.2 mm 2 m/s 749 mmHg 97%
    08:00 +1°C° 0.1 mm 3 m/s 749 mmHg 95%
    09:00 +1°C° 0.1 mm 3 m/s 749 mmHg 93%
    10:00 +2°C° 0.1 mm 3 m/s 749 mmHg 91%
    11:00 +2°C° 0 mm 3 m/s 749 mmHg 88%
    12:00 +2°C° 0 mm 3 m/s 749 mmHg 84%
    13:00 +3°C° 0 mm 3 m/s 749 mmHg 81%
    14:00 +2°C° 0 mm 3 m/s 749 mmHg 84%
    15:00 +3°C° 0 mm 2 m/s 749 mmHg 86%
    16:00 +2°C° 0 mm 2 m/s 749 mmHg 89%
    17:00 +1°C° 0 mm 3 m/s 749 mmHg 89%
    18:00 +1°C° 0 mm 3 m/s 749 mmHg 89%
    19:00 +1°C° 0 mm 3 m/s 749 mmHg 89%
    20:00 +1°C° 0 mm 3 m/s 749 mmHg 90%
    21:00 0°C° 0 mm 3 m/s 749 mmHg 91%
    22:00 0°C° 0 mm 3 m/s 749 mmHg 91%
    23:00 0°C° 0 mm 3 m/s 748 mmHg 90%
    Arată mai mult